This demonstration page uses our WeatherBlox Daily Observations layout. Learn more.

Left ArrowRight Arrow

38.88101, -77.10428

Hourly Observations for October 12, 2022

Temp ( °F °C ) Dew Point ( °F °C ) Humidity (%) Winds ( mph kmh ) Pressure ( in mb ) Visibility ( mi km ) Precip ( " mm )
12:52 am 00:52 Clear 55 12.8 48 8.9 77 77 SSW 7 11 30.29 1026 10 16 0.00 0.00
1:52 am 01:52 Mostly Clear 58 14.4 47 8.3 67 67 SSW 6 9 30.29 1026 10 16 0.00 0.00
2:52 am 02:52 Partly Cloudy 55 12.8 49 9.4 80 80 SSW 5 7 30.28 1025 10 16 0.00 0.00
3:52 am 03:52 Mostly Cloudy 53 11.7 48 8.9 83 83 SW 3 6 30.27 1025 10 16 0.00 0.00
4:52 am 04:52 Mostly Cloudy 52 11.1 48 8.9 86 86 SW 5 7 30.27 1025 10 16 0.00 0.00
5:52 am 05:52 Mostly Cloudy 51 10.6 47 8.3 86 86 SW 3 6 30.27 1025 10 16 0.00 0.00
6:52 am 06:52 Mostly Cloudy 52 11.1 49 9.4 89 89 S 3 6 30.27 1025 10 16 0.00 0.00
7:52 am 07:52 Mostly Cloudy 52 11.1 50 10 93 93 SSW 5 7 30.25 1025 10 16 0.00 0.00
8:52 am 08:52 Mostly Cloudy 56 13.3 52 11.1 87 87 S 9 15 30.26 1025 10 16 0.00 0.00
9:52 am 09:52 Mostly Cloudy 59 15 54 12.2 83 83 S 10 17 30.26 1025 10 16 0.00 0.00
10:52 am 10:52 Mostly Cloudy 62 16.7 54 12.2 75 75 S 10 17 30.24 1024 10 16 0.00 0.00
11:52 am 11:52 Mostly Cloudy 65 18.3 55 12.8 70 70 S 9 15 30.22 1023 10 16 0.00 0.00
12:52 pm 12:52 Cloudy 69 20.6 55 12.8 61 61 S 10 17 30.20 1023 10 16 0.00 0.00
1:52 pm 13:52 Cloudy 70 21.1 55 12.8 59 59 SSE 12 19 30.16 1021 10 16 0.00 0.00
2:52 pm 14:52 Mostly Cloudy 70 21.1 55 12.8 59 59 S 10 17 30.11 1020 10 16 0.00 0.00
3:52 pm 15:52 Mostly Cloudy 70 21.1 54 12.2 57 57 S 13 20 30.09 1019 10 16 0.00 0.00
4:52 pm 16:52 Mostly Cloudy 70 21.1 54 12.2 57 57 S 12 19 30.07 1018 10 16 0.00 0.00
5:52 pm 17:52 Cloudy 69 20.6 54 12.2 59 59 SSE 8 13 30.06 1018 10 16 0.00 0.00
6:52 pm 18:52 Cloudy 67 19.4 55 12.8 66 66 SSE 8 13 30.07 1018 10 16 0.00 0.00
7:52 pm 19:52 Cloudy 67 19.4 55 12.8 66 66 S 12 19 30.06 1018 10 16 0.00 0.00
8:52 pm 20:52 Cloudy 67 19.4 54 12.2 63 63 S 15 24 30.05 1018 10 16 0.00 0.00
9:52 pm 21:52 Cloudy 65 18.3 55 12.8 70 70 SSE 9 15 30.04 1017 10 16 0.00 0.00
10:52 pm 22:52 Cloudy 64 17.8 56 13.3 75 75 S 7 11 30.03 1017 10 16 0.00 0.00
11:52 pm 23:52 Cloudy 65 18.3 56 13.3 73 73 S 9 15 30.02 1017 10 16 0.00 0.00

Powered by AerisWeather